BST,Max TemperatureF,Mean TemperatureF,Min TemperatureF,Max Dew PointF,MeanDew PointF,Min DewpointF,Max Humidity, Mean Humidity, Min Humidity, Max Sea Level PressureIn, Mean Sea Level PressureIn, Min Sea Level PressureIn, Max VisibilityMiles, Mean VisibilityMiles, Min VisibilityMiles, Max Wind SpeedMPH, Mean Wind SpeedMPH, Max Gust SpeedMPH,PrecipitationIn, CloudCover, Events, WindDirDegrees
2012-8-1,65,62,57,61,59,54,100,91,76,29.82,29.72,29.65,10,4,1,25,16,38,0.16,6,Rain,222
2012-8-2,64,60,57,59,57,54,94,86,69,29.88,29.82,29.77,11,6,2,16,11,,0.02,4,Rain,235
2012-8-3,62,60,57,57,55,53,94,84,70,29.87,29.82,29.77,10,7,3,17,13,33,0.02,5,Rain,223
2012-8-4,64,60,56,57,55,54,94,84,68,29.77,29.73,29.68,12,7,6,24,16,28,0.04,4,,225
2012-8-5,64,59,54,59,56,54,100,90,79,29.77,29.68,29.65,12,7,3,14,8,,0.01,4,Rain,241
2012-8-6,62,58,53,57,55,53,100,88,71,30.06,29.90,29.77,16,8,6,14,9,25,0.01,5,Rain,274
2012-8-7,61,58,54,61,58,54,100,97,88,30.19,30.11,30.06,16,4,0,16,11,,0.12,7,Fog-Rain,229
2012-8-8,68,64,59,63,61,59,100,93,80,30.26,30.23,30.18,11,3,0,8,6,,0.00,5,Fog,264
2012-8-9,72,64,57,66,62,57,100,90,74,30.30,30.28,30.24,16,6,2,14,9,,0.00,3,Fog,76
2012-8-10,71,65,59,65,61,57,100,87,71,30.31,30.23,30.15,12,6,4,21,14,31,0.00,2,,91
2012-8-11,68,64,60,63,61,59,100,90,77,30.13,30.00,29.89,11,6,3,17,14,29,0.00,5,,127
2012-8-12,67,64,60,63,61,60,100,94,88,29.89,29.84,29.80,16,6,2,14,9,,0.01,6,Rain,207
2012-8-13,67,64,60,64,62,59,100,95,88,29.79,29.74,29.68,12,6,1,17,14,32,0.00,6,Rain,209
2012-8-14,68,63,58,64,62,58,100,94,81,29.80,29.75,29.65,16,6,2,22,11,28,0.01,6,Rain,160
2012-8-15,66,64,60,64,61,57,100,90,81,29.65,29.52,29.42,7,5,2,29,20,55,0.20,5,Rain,180
2012-8-16,65,62,59,63,60,57,100,95,88,29.88,29.80,29.68,7,4,1,25,21,45,0.16,7,Rain,194
2012-8-17,64,62,59,64,63,62,100,98,94,29.86,29.80,29.71,5,2,0,21,16,39,0.59,8,Fog-Rain,200
2012-8-18,65,62,60,63,62,61,100,98,87,30.04,29.93,29.83,16,3,0,16,11,29,0.01,8,Fog-Rain,226
2012-8-19,67,62,57,63,60,55,100,93,77,30.06,30.02,29.98,16,5,0,9,4,,0.16,6,Fog-Rain,154
2012-8-20,66,62,59,63,62,59,100,96,87,30.17,30.12,30.04,16,6,0,12,8,,0.00,4,Rain,239
2012-8-21,65,62,59,63,60,56,100,95,85,30.14,30.08,30.04,12,7,2,15,8,26,0.01,4,Rain,246
2012-8-22,64,60,55,61,58,55,100,93,85,30.15,30.11,30.09,16,8,6,14,9,25,0.00,3,,264
2012-8-23,62,58,53,58,57,54,100,93,85,30.10,29.95,29.77,16,8,6,8,5,,0.00,5,Fog,234
2012-8-24,65,61,57,64,60,55,100,98,92,29.77,29.55,29.47,12,5,0,23,12,38,0.39,7,Fog-Rain,200
2012-8-25,63,60,57,61,59,57,100,97,92,29.95,29.67,29.47,11,5,2,21,13,31,0.16,6,Rain,283
2012-8-26,62,58,54,61,58,54,100,95,87,30.09,30.03,29.98,12,7,6,14,10,,0.01,5,,241
2012-8-27,63,61,59,63,60,59,100,99,94,29.99,29.82,29.71,7,4,0,20,16,38,0.39,7,Rain,213
2012-8-28,64,60,57,63,59,57,100,95,88,29.98,29.91,29.83,16,7,6,16,10,28,0.00,4,Rain,234
2012-8-29,64,60,55,61,58,57,100,94,83,29.89,29.83,29.77,12,6,2,24,16,37,0.03,5,Rain,235
2012-8-30,61,56,51,57,54,48,100,86,68,30.42,30.17,29.89,16,8,6,18,15,32,0.00,3,Rain,327
2012-8-31,63,55,47,55,52,46,100,86,65,30.50,30.47,30.42,19,8,6,10,5,,0.00,4,,319